Time,TemperatureF,DewpointF,PressureIn,WindDirection,WindDirectionDegrees,WindSpeedMPH,WindSpeedGustMPH,Humidity,HourlyPrecipIn,Conditions,Clouds,dailyrainin,SoftwareType,DateUTC
2013-02-05 00:00:00,44.9,41.3,29.94,SE,134,11.5,11.5,87,0.00,OVC,,0.00,WeatherDisplay:10.37,2013-02-05 08:00:00,
2013-02-05 00:05:00,44.9,41.3,29.93,SSE,150,9.2,9.2,87,0.00,OVC,,0.00,WeatherDisplay:10.37,2013-02-05 08:05:00,
2013-02-05 00:10:00,44.9,41.3,29.93,SSE,159,11.5,11.5,87,0.00,OVC,,0.00,WeatherDisplay:10.37,2013-02-05 08:10:00,
2013-02-05 00:15:00,44.8,41.5,29.93,SE,146,10.4,10.4,88,0.00,OVC,,0.00,WeatherDisplay:10.37,2013-02-05 08:15:00,
2013-02-05 00:20:00,44.7,41.4,29.93,SSE,153,6.9,6.9,88,0.00,OVC,,0.00,WeatherDisplay:10.37,2013-02-05 08:20:00,
2013-02-05 00:25:00,44.7,41.4,29.93,SSE,159,6.9,6.9,88,0.00,OVC,,0.00,WeatherDisplay:10.37,2013-02-05 08:25:00,
2013-02-05 00:30:00,44.5,41.2,29.94,SSE,167,11.5,11.5,88,0.00,OVC,,0.00,WeatherDisplay:10.37,2013-02-05 08:30:00,
2013-02-05 00:35:00,44.3,41.0,29.94,SSE,162,6.9,6.9,88,0.00,OVC,,0.00,WeatherDisplay:10.37,2013-02-05 08:35:00,
2013-02-05 00:40:00,43.8,40.8,29.93,South,172,10.4,10.4,89,0.00,OVC,,0.00,WeatherDisplay:10.37,2013-02-05 08:40:00,
2013-02-05 00:45:00,43.5,40.8,29.94,South,182,5.8,5.8,90,0.00,OVC,,0.00,WeatherDisplay:10.37,2013-02-05 08:45:00,
2013-02-05 00:50:00,43.4,40.7,29.93,SE,145,5.8,5.8,90,0.00,OVC,,0.00,WeatherDisplay:10.37,2013-02-05 08:50:00,
2013-02-05 00:55:00,43.2,40.5,29.93,SSE,167,4.6,4.6,90,0.00,OVC,,0.00,WeatherDisplay:10.37,2013-02-05 08:55:00,
2013-02-05 01:00:00,43.1,40.7,29.94,SE,132,6.9,6.9,91,0.00,OVC,,0.00,WeatherDisplay:10.37,2013-02-05 09:00:00,
2013-02-05 01:05:00,43.1,40.7,29.94,SSE,154,10.4,10.4,91,0.00,OVC,,0.00,WeatherDisplay:10.37,2013-02-05 09:05:00,
2013-02-05 01:10:00,43.0,40.6,29.93,SSE,150,10.4,10.4,91,0.00,OVC,,0.00,WeatherDisplay:10.37,2013-02-05 09:10:00,
2013-02-05 01:15:00,42.9,40.5,29.93,SSE,154,9.2,9.2,91,0.00,OVC,,0.00,WeatherDisplay:10.37,2013-02-05 09:15:00,
2013-02-05 01:20:00,42.9,40.5,29.93,SSE,147,9.2,9.2,91,0.00,OVC,,0.00,WeatherDisplay:10.37,2013-02-05 09:20:00,
2013-02-05 01:25:00,42.8,40.4,29.94,SE,126,11.5,11.5,91,0.00,OVC,,0.00,WeatherDisplay:10.37,2013-02-05 09:25:00,
2013-02-05 01:30:00,42.8,40.4,29.94,SSE,150,6.9,6.9,91,0.00,OVC,,0.00,WeatherDisplay:10.37,2013-02-05 09:30:00,
2013-02-05 01:35:00,42.7,40.3,29.94,SE,137,9.2,9.2,91,0.00,OVC,,0.00,WeatherDisplay:10.37,2013-02-05 09:35:00,
2013-02-05 01:40:00,42.7,40.5,29.93,ESE,119,10.4,10.4,92,0.00,OVC,,0.00,WeatherDisplay:10.37,2013-02-05 09:40:00,
2013-02-05 01:45:00,42.7,40.5,29.94,SSE,156,10.4,10.4,92,0.00,OVC,,0.00,WeatherDisplay:10.37,2013-02-05 09:45:00,
2013-02-05 01:50:00,42.7,40.5,29.94,SSE,148,6.0,6.0,92,0.00,OVC,,0.00,WeatherDisplay:10.37,2013-02-05 09:50:00,
2013-02-05 01:55:00,42.7,40.5,29.94,SE,144,11.5,11.5,92,0.00,OVC,,0.00,WeatherDisplay:10.37,2013-02-05 09:55:00,
2013-02-05 02:00:00,42.7,40.5,29.94,SSE,151,11.5,11.5,92,0.00,OVC,,0.00,WeatherDisplay:10.37,2013-02-05 10:00:00,
2013-02-05 02:05:00,42.7,40.5,29.94,SSE,149,12.7,12.7,92,0.00,OVC,,0.00,WeatherDisplay:10.37,2013-02-05 10:05:00,
2013-02-05 02:10:00,42.7,40.5,29.93,SE,140,8.1,8.1,92,0.00,OVC,,0.00,WeatherDisplay:10.37,2013-02-05 10:10:00,
2013-02-05 02:15:00,42.8,40.6,29.93,SSE,167,12.7,12.7,92,0.00,OVC,,0.00,WeatherDisplay:10.37,2013-02-05 10:15:00,
2013-02-05 02:20:00,42.8,40.6,29.93,SE,139,12.7,12.7,92,0.00,OVC,,0.00,WeatherDisplay:10.37,2013-02-05 10:20:00,
2013-02-05 02:25:00,42.8,40.6,29.93,SSE,150,11.5,11.5,92,0.00,OVC,,0.00,WeatherDisplay:10.37,2013-02-05 10:25:00,
2013-02-05 02:30:00,42.7,40.5,29.94,SE,144,12.7,12.7,92,0.00,OVC,,0.00,WeatherDisplay:10.37,2013-02-05 10:30:00,
2013-02-05 02:35:00,42.6,40.4,29.94,SSE,150,11.5,11.5,92,0.00,OVC,,0.00,WeatherDisplay:10.37,2013-02-05 10:35:00,
2013-02-05 02:40:00,42.6,40.4,29.94,SSE,148,15.0,15.0,92,0.00,OVC,,0.00,WeatherDisplay:10.37,2013-02-05 10:40:00,
2013-02-05 02:45:00,42.5,40.3,29.94,SSE,150,15.0,15.0,92,0.00,OVC,,0.00,WeatherDisplay:10.37,2013-02-05 10:45:00,
2013-02-05 02:50:00,42.6,40.4,29.94,SSE,161,11.5,11.5,92,0.00,OVC,,0.00,WeatherDisplay:10.37,2013-02-05 10:50:00,
2013-02-05 02:55:00,42.6,40.2,29.94,SSE,157,12.7,12.7,91,0.00,OVC,,0.00,WeatherDisplay:10.37,2013-02-05 10:55:00,
2013-02-05 03:00:00,42.6,40.2,29.93,SE,138,14.0,14.0,91,0.00,OVC,,0.00,WeatherDisplay:10.37,2013-02-05 11:00:00,
2013-02-05 03:05:00,42.7,40.3,29.93,SSE,150,18.4,18.4,91,0.00,OVC,,0.00,WeatherDisplay:10.37,2013-02-05 11:05:00,
2013-02-05 03:10:00,42.7,40.3,29.93,SE,142,16.1,16.1,91,0.00,OVC,,0.00,WeatherDisplay:10.37,2013-02-05 11:10:00,
2013-02-05 03:15:00,42.7,40.3,29.93,SSE,155,11.5,11.5,91,0.00,OVC,,0.00,WeatherDisplay:10.37,2013-02-05 11:15:00,
2013-02-05 03:20:00,42.6,40.2,29.93,SSE,148,12.7,12.7,91,0.00,OVC,,0.00,WeatherDisplay:10.37,2013-02-05 11:20:00,
2013-02-05 03:25:00,42.6,40.2,29.93,SSE,153,13.8,13.8,91,0.00,OVC,,0.00,WeatherDisplay:10.37,2013-02-05 11:25:00,
2013-02-05 03:30:00,42.6,40.2,29.92,SE,136,13.8,13.8,91,0.00,OVC,,0.00,WeatherDisplay:10.37,2013-02-05 11:30:00,
2013-02-05 03:35:00,42.6,40.2,29.92,SSE,150,15.0,15.0,91,0.00,OVC,,0.00,WeatherDisplay:10.37,2013-02-05 11:35:00,
2013-02-05 03:40:00,42.6,40.2,29.92,SE,138,15.0,15.0,91,0.00,OVC,,0.00,WeatherDisplay:10.37,2013-02-05 11:40:00,
2013-02-05 03:45:00,42.7,40.0,29.92,SSE,164,17.3,17.3,90,0.00,OVC,,0.00,WeatherDisplay:10.37,2013-02-05 11:45:00,
2013-02-05 03:50:00,42.8,40.1,29.92,SSE,157,13.8,13.8,90,0.00,OVC,,0.00,WeatherDisplay:10.37,2013-02-05 11:50:00,
2013-02-05 03:55:00,42.7,40.0,29.92,SSE,151,17.3,17.3,90,0.00,OVC,,0.00,WeatherDisplay:10.37,2013-02-05 11:55:00,
2013-02-05 04:00:00,42.7,40.0,29.92,SSE,155,9.2,9.2,90,0.00,OVC,,0.00,WeatherDisplay:10.37,2013-02-05 12:00:00,
2013-02-05 04:05:00,42.7,40.3,29.92,South,184,11.0,11.0,91,0.00,OVC,,0.00,WeatherDisplay:10.37,2013-02-05 12:05:00,
2013-02-05 04:10:00,42.7,40.3,29.92,SSE,148,9.2,9.2,91,0.00,OVC,,0.00,WeatherDisplay:10.37,2013-02-05 12:10:00,
2013-02-05 04:15:00,42.7,40.3,29.92,SSE,152,11.5,11.5,91,0.00,OVC,,0.00,WeatherDisplay:10.37,2013-02-05 12:15:00,
2013-02-05 04:20:00,42.6,40.2,29.92,SSE,151,16.1,16.1,91,0.00,OVC,,0.00,WeatherDisplay:10.37,2013-02-05 12:20:00,
2013-02-05 04:25:00,42.6,40.2,29.93,SSE,164,11.5,11.5,91,0.00,OVC,,0.00,WeatherDisplay:10.37,2013-02-05 12:25:00,
2013-02-05 04:30:00,42.6,40.2,29.92,SSE,148,12.0,12.0,91,0.00,OVC,,0.00,WeatherDisplay:10.37,2013-02-05 12:30:00,
2013-02-05 04:35:00,42.6,40.2,29.93,SE,141,16.1,16.1,91,0.00,OVC,,0.00,WeatherDisplay:10.37,2013-02-05 12:35:00,
2013-02-05 04:40:00,42.5,40.1,29.93,SE,140,11.5,11.5,91,0.00,OVC,,0.00,WeatherDisplay:10.37,2013-02-05 12:40:00,
2013-02-05 04:45:00,42.4,40.0,29.92,SE,136,11.5,11.5,91,0.00,OVC,,0.00,WeatherDisplay:10.37,2013-02-05 12:45:00,
2013-02-05 04:50:00,42.4,40.2,29.92,SE,144,11.5,11.5,92,0.00,OVC,,0.01,WeatherDisplay:10.37,2013-02-05 12:50:00,
2013-02-05 04:55:00,42.3,40.1,29.92,SSE,148,9.2,9.2,92,0.01,RA,,0.01,WeatherDisplay:10.37,2013-02-05 12:55:00,
2013-02-05 05:00:00,42.2,40.0,29.92,SE,144,11.5,11.5,92,0.01,RA,,0.01,WeatherDisplay:10.37,2013-02-05 13:00:00,
2013-02-05 05:05:00,42.2,40.0,29.92,SSE,165,7.0,7.0,92,0.01,OVC,,0.01,WeatherDisplay:10.37,2013-02-05 13:05:00,
2013-02-05 05:10:00,42.1,39.9,29.92,SSE,165,10.4,10.4,92,0.01,OVC,,0.01,WeatherDisplay:10.37,2013-02-05 13:10:00,
2013-02-05 05:15:00,42.0,40.1,29.92,SSE,167,11.5,11.5,93,0.02,RA,,0.02,WeatherDisplay:10.37,2013-02-05 13:15:00,
2013-02-05 05:20:00,42.0,40.1,29.92,SSE,151,10.4,10.4,93,0.02,RA,,0.02,WeatherDisplay:10.37,2013-02-05 13:20:00,
2013-02-05 05:25:00,42.0,40.1,29.92,SE,146,15.0,15.0,93,0.02,OVC,,0.02,WeatherDisplay:10.37,2013-02-05 13:25:00,
2013-02-05 05:30:00,41.9,40.0,29.92,SE,142,11.5,11.5,93,0.02,OVC,,0.02,WeatherDisplay:10.37,2013-02-05 13:30:00,
2013-02-05 05:35:00,41.9,40.0,29.91,SSE,151,12.7,12.7,93,0.02,OVC,,0.02,WeatherDisplay:10.37,2013-02-05 13:35:00,
2013-02-05 05:40:00,41.9,40.0,29.91,SE,144,11.5,11.5,93,0.04,RA,,0.04,WeatherDisplay:10.37,2013-02-05 13:40:00,
2013-02-05 05:45:00,41.9,40.0,29.91,SE,143,9.0,9.0,93,0.04,RA,,0.04,WeatherDisplay:10.37,2013-02-05 13:45:00,
2013-02-05 05:50:00,41.8,39.9,29.91,SE,140,11.5,11.5,93,0.04,OVC,,0.04,WeatherDisplay:10.37,2013-02-05 13:50:00,
2013-02-05 05:55:00,41.8,39.9,29.91,SE,140,11.5,11.5,93,0.02,OVC,,0.04,WeatherDisplay:10.37,2013-02-05 13:55:00,
2013-02-05 06:00:00,41.8,39.9,29.91,SE,142,16.1,16.1,93,0.02,OVC,,0.04,WeatherDisplay:10.37,2013-02-05 14:00:00,
2013-02-05 06:05:00,41.8,40.2,29.91,SE,146,10.4,10.4,94,0.02,OVC,,0.04,WeatherDisplay:10.37,2013-02-05 14:05:00,
2013-02-05 06:10:00,41.9,40.3,29.91,South,170,14.0,14.0,94,0.02,OVC,,0.04,WeatherDisplay:10.37,2013-02-05 14:10:00,
2013-02-05 06:15:00,41.9,40.3,29.91,SE,137,15.0,15.0,94,0.02,OVC,,0.04,WeatherDisplay:10.37,2013-02-05 14:15:00,
2013-02-05 06:20:00,41.8,40.2,29.91,SSE,155,15.0,15.0,94,0.01,OVC,,0.04,WeatherDisplay:10.37,2013-02-05 14:20:00,
2013-02-05 06:25:00,41.9,40.3,29.91,SE,133,11.5,11.5,94,0.01,OVC,,0.04,WeatherDisplay:10.37,2013-02-05 14:25:00,
2013-02-05 06:30:00,41.9,40.3,29.90,South,170,13.8,13.8,94,0.01,OVC,,0.04,WeatherDisplay:10.37,2013-02-05 14:30:00,
2013-02-05 06:35:00,41.8,40.2,29.90,SSE,148,10.0,10.0,94,0.01,OVC,,0.04,WeatherDisplay:10.37,2013-02-05 14:35:00,
2013-02-05 06:40:00,41.8,40.2,29.90,South,169,11.5,11.5,94,0.00,OVC,,0.04,WeatherDisplay:10.37,2013-02-05 14:40:00,
2013-02-05 06:45:00,41.8,40.2,29.90,SE,140,18.4,18.4,94,0.00,OVC,,0.04,WeatherDisplay:10.37,2013-02-05 14:45:00,
2013-02-05 06:50:00,41.8,40.2,29.90,SE,140,15.0,15.0,94,0.00,OVC,,0.04,WeatherDisplay:10.37,2013-02-05 14:50:00,
2013-02-05 06:55:00,41.8,40.2,29.90,SSE,167,19.6,19.6,94,0.00,OVC,,0.04,WeatherDisplay:10.37,2013-02-05 14:55:00,
2013-02-05 07:11:00,41.8,40.2,29.90,SSE,165,12.7,13.0,94,0.00,OVC,,0.04,WeatherDisplay:10.37,2013-02-05 15:11:00,
2013-02-05 07:16:00,41.8,40.2,29.90,SSE,167,13.8,13.8,94,0.00,OVC,,0.04,WeatherDisplay:10.37,2013-02-05 15:16:00,
2013-02-05 07:21:00,41.8,40.2,29.90,SSE,148,16.1,16.1,94,0.01,RA,,0.05,WeatherDisplay:10.37,2013-02-05 15:21:00,
2013-02-05 07:26:00,41.8,40.2,29.91,SSE,158,15.0,15.0,94,0.01,RA,,0.05,WeatherDisplay:10.37,2013-02-05 15:26:00,
2013-02-05 07:31:00,41.8,40.2,29.90,SSE,150,12.7,12.7,94,0.01,OVC,,0.05,WeatherDisplay:10.37,2013-02-05 15:31:00,
2013-02-05 07:36:00,41.8,40.2,29.91,SSE,163,11.5,11.5,94,0.01,OVC,,0.05,WeatherDisplay:10.37,2013-02-05 15:36:00,
2013-02-05 07:41:00,41.8,40.2,29.91,SE,143,11.5,11.5,94,0.01,OVC,,0.05,WeatherDisplay:10.37,2013-02-05 15:41:00,
2013-02-05 07:46:00,41.8,40.2,29.91,SSE,154,11.5,11.5,94,0.01,OVC,,0.05,WeatherDisplay:10.37,2013-02-05 15:46:00,
2013-02-05 07:51:00,41.8,40.2,29.91,SSE,156,15.0,15.0,94,0.01,OVC,,0.05,WeatherDisplay:10.37,2013-02-05 15:51:00,
2013-02-05 07:56:00,41.8,40.2,29.91,SE,146,13.8,13.8,94,0.01,OVC,,0.05,WeatherDisplay:10.37,2013-02-05 15:56:00,
2013-02-05 08:01:00,41.8,40.2,29.91,SSE,150,17.3,17.3,94,0.01,OVC,,0.05,WeatherDisplay:10.37,2013-02-05 16:01:00,
2013-02-05 08:06:00,41.8,40.2,29.92,SE,146,13.8,13.8,94,0.01,OVC,,0.05,WeatherDisplay:10.37,2013-02-05 16:06:00,
2013-02-05 08:11:00,41.8,40.2,29.91,SE,138,17.3,17.3,94,0.01,OVC,,0.05,WeatherDisplay:10.37,2013-02-05 16:11:00,
2013-02-05 08:16:00,41.8,40.2,29.92,SSE,154,13.8,13.8,94,0.01,OVC,,0.05,WeatherDisplay:10.37,2013-02-05 16:16:00,
2013-02-05 08:21:00,41.8,40.2,29.91,SSE,148,13.8,13.8,94,0.01,OVC,,0.05,WeatherDisplay:10.37,2013-02-05 16:21:00,
2013-02-05 08:26:00,41.8,40.2,29.92,SE,146,13.8,13.8,94,0.00,OVC,,0.05,WeatherDisplay:10.37,2013-02-05 16:26:00,
2013-02-05 08:31:00,41.9,40.3,29.92,SE,142,16.1,16.1,94,0.00,OVC,,0.05,WeatherDisplay:10.37,2013-02-05 16:31:00,
2013-02-05 08:36:00,41.9,40.3,29.92,SE,126,13.8,13.8,94,0.00,OVC,,0.05,WeatherDisplay:10.37,2013-02-05 16:36:00,
2013-02-05 08:41:00,41.9,40.3,29.92,SSE,155,10.4,10.4,94,0.00,OVC,,0.05,WeatherDisplay:10.37,2013-02-05 16:41:00,
2013-02-05 08:46:00,41.9,40.3,29.92,SSE,157,13.0,13.0,94,0.00,OVC,,0.05,WeatherDisplay:10.37,2013-02-05 16:46:00,
2013-02-05 08:51:00,41.9,40.3,29.92,SSE,167,10.4,10.4,94,0.00,OVC,,0.05,WeatherDisplay:10.37,2013-02-05 16:51:00,
2013-02-05 08:56:00,41.9,40.3,29.93,South,175,11.5,11.5,94,0.00,OVC,,0.05,WeatherDisplay:10.37,2013-02-05 16:56:00,
2013-02-05 09:01:00,41.9,40.3,29.92,South,178,11.5,11.5,94,0.00,OVC,,0.05,WeatherDisplay:10.37,2013-02-05 17:01:00,
2013-02-05 09:06:00,42.0,40.4,29.92,ESE,123,11.5,11.5,94,0.00,OVC,,0.05,WeatherDisplay:10.37,2013-02-05 17:06:00,
2013-02-05 09:11:00,42.1,40.5,29.92,SE,144,9.2,9.2,94,0.00,OVC,,0.05,WeatherDisplay:10.37,2013-02-05 17:11:00,
2013-02-05 09:16:00,42.1,40.8,29.92,SSE,156,11.5,11.5,95,0.00,OVC,,0.05,WeatherDisplay:10.37,2013-02-05 17:16:00,
2013-02-05 09:21:00,42.1,40.8,29.92,SSE,161,10.0,10.0,95,0.00,OVC,,0.05,WeatherDisplay:10.37,2013-02-05 17:21:00,
2013-02-05 09:26:00,42.2,40.6,29.92,SE,138,12.0,12.0,94,0.00,OVC,,0.05,WeatherDisplay:10.37,2013-02-05 17:26:00,
2013-02-05 09:31:00,42.2,40.6,29.92,SSE,158,13.0,13.0,94,0.00,OVC,,0.05,WeatherDisplay:10.37,2013-02-05 17:31:00,
2013-02-05 09:36:00,42.2,40.9,29.92,SE,144,11.5,11.5,95,0.00,OVC,,0.05,WeatherDisplay:10.37,2013-02-05 17:36:00,
2013-02-05 09:41:00,42.2,40.9,29.92,SE,139,11.5,11.5,95,0.00,OVC,,0.05,WeatherDisplay:10.37,2013-02-05 17:41:00,
2013-02-05 09:46:00,42.3,41.0,29.93,South,176,9.2,9.2,95,0.00,OVC,,0.05,WeatherDisplay:10.37,2013-02-05 17:46:00,
2013-02-05 09:51:00,42.3,41.0,29.93,South,174,9.0,9.0,95,0.00,OVC,,0.05,WeatherDisplay:10.37,2013-02-05 17:51:00,
2013-02-05 09:56:00,42.3,41.0,29.93,SSE,157,13.0,13.0,95,0.00,OVC,,0.05,WeatherDisplay:10.37,2013-02-05 17:56:00,
2013-02-05 10:01:00,42.3,41.0,29.93,SSE,152,11.5,11.5,95,0.00,OVC,,0.05,WeatherDisplay:10.37,2013-02-05 18:01:00,
2013-02-05 10:06:00,42.4,41.1,29.93,SE,124,11.5,11.5,95,0.00,OVC,,0.05,WeatherDisplay:10.37,2013-02-05 18:06:00,
2013-02-05 10:11:00,42.5,41.2,29.93,SSE,150,10.4,10.4,95,0.00,OVC,,0.05,WeatherDisplay:10.37,2013-02-05 18:11:00,
2013-02-05 10:16:00,42.6,41.3,29.93,SSE,162,11.5,11.5,95,0.00,OVC,,0.05,WeatherDisplay:10.37,2013-02-05 18:16:00,
2013-02-05 10:21:00,42.7,41.4,29.93,South,175,10.0,10.0,95,0.00,OVC,,0.05,WeatherDisplay:10.37,2013-02-05 18:21:00,
2013-02-05 10:26:00,42.8,41.5,29.93,SE,142,10.0,10.0,95,0.00,OVC,,0.05,WeatherDisplay:10.37,2013-02-05 18:26:00,
2013-02-05 10:31:00,42.9,41.6,29.93,SE,138,11.5,11.5,95,0.00,OVC,,0.05,WeatherDisplay:10.37,2013-02-05 18:31:00,
2013-02-05 10:36:00,42.9,41.6,29.93,SSE,155,11.5,11.5,95,0.00,OVC,,0.05,WeatherDisplay:10.37,2013-02-05 18:36:00,
2013-02-05 10:41:00,43.0,41.7,29.93,SSE,164,12.7,12.7,95,0.00,OVC,,0.05,WeatherDisplay:10.37,2013-02-05 18:41:00,
2013-02-05 10:46:00,43.3,42.0,29.93,SSE,167,12.7,12.7,95,0.00,OVC,,0.05,WeatherDisplay:10.37,2013-02-05 18:46:00,
2013-02-05 10:51:00,43.4,42.1,29.94,South,169,11.5,11.5,95,0.00,OVC,,0.05,WeatherDisplay:10.37,2013-02-05 18:51:00,
2013-02-05 10:56:00,43.5,42.2,29.94,East,100,11.5,11.5,95,0.00,OVC,,0.05,WeatherDisplay:10.37,2013-02-05 18:56:00,
2013-02-05 11:01:00,43.4,42.1,29.93,SE,145,8.1,8.1,95,0.00,OVC,,0.05,WeatherDisplay:10.37,2013-02-05 19:01:00,
2013-02-05 11:06:00,43.5,42.2,29.93,SSE,148,9.2,9.2,95,0.00,OVC,,0.05,WeatherDisplay:10.37,2013-02-05 19:06:00,
2013-02-05 11:11:00,43.5,41.9,29.94,SSE,165,15.0,15.0,94,0.00,OVC,,0.05,WeatherDisplay:10.37,2013-02-05 19:11:00,
2013-02-05 11:16:00,43.6,42.0,29.93,SE,146,10.4,10.4,94,0.00,OVC,,0.05,WeatherDisplay:10.37,2013-02-05 19:16:00,
2013-02-05 11:21:00,43.7,42.1,29.93,SSE,151,11.5,11.5,94,0.00,OVC,,0.05,WeatherDisplay:10.37,2013-02-05 19:21:00,
2013-02-05 11:26:00,43.8,42.2,29.93,SSE,159,15.0,15.0,94,0.00,OVC,,0.05,WeatherDisplay:10.37,2013-02-05 19:26:00,
2013-02-05 11:31:00,44.0,42.4,29.93,South,185,12.7,12.7,94,0.00,OVC,,0.05,WeatherDisplay:10.37,2013-02-05 19:31:00,
2013-02-05 11:36:00,44.2,42.6,29.93,SSE,164,8.1,8.3,94,0.00,OVC,,0.05,WeatherDisplay:10.37,2013-02-05 19:36:00,
2013-02-05 11:41:00,44.3,42.7,29.93,SSE,150,6.9,6.9,94,0.00,OVC,,0.05,WeatherDisplay:10.37,2013-02-05 19:41:00,
2013-02-05 11:46:00,44.3,42.7,29.93,SSE,159,15.0,15.0,94,0.00,OVC,,0.05,WeatherDisplay:10.37,2013-02-05 19:46:00,
2013-02-05 11:51:00,44.5,42.9,29.93,SSE,152,11.5,11.5,94,0.00,OVC,,0.05,WeatherDisplay:10.37,2013-02-05 19:51:00,
2013-02-05 11:56:00,44.9,43.3,29.92,SSE,150,12.0,12.0,94,0.00,OVC,,0.05,WeatherDisplay:10.37,2013-02-05 19:56:00,
2013-02-05 12:01:00,45.0,43.1,29.92,South,180,9.2,9.2,93,0.00,OVC,,0.05,WeatherDisplay:10.37,2013-02-05 20:01:00,
2013-02-05 12:06:00,45.2,43.3,29.92,SSE,165,12.0,12.0,93,0.00,OVC,,0.05,WeatherDisplay:10.37,2013-02-05 20:06:00,
2013-02-05 12:11:00,45.2,43.3,29.92,SSE,167,13.8,13.8,93,0.00,OVC,,0.05,WeatherDisplay:10.37,2013-02-05 20:11:00,
2013-02-05 12:16:00,45.4,43.5,29.92,SE,138,14.0,14.0,93,0.00,OVC,,0.05,WeatherDisplay:10.37,2013-02-05 20:16:00,
2013-02-05 12:21:00,45.7,43.5,29.92,SSW,196,11.5,11.5,92,0.00,OVC,,0.05,WeatherDisplay:10.37,2013-02-05 20:21:00,
2013-02-05 12:26:00,45.9,43.4,29.92,SSE,168,13.8,13.8,91,0.00,OVC,,0.05,WeatherDisplay:10.37,2013-02-05 20:26:00,
2013-02-05 12:31:00,46.1,43.3,29.92,South,169,15.0,15.0,90,0.00,OVC,,0.05,WeatherDisplay:10.37,2013-02-05 20:31:00,
2013-02-05 12:36:00,46.3,43.5,29.92,SSE,153,13.8,13.8,90,0.00,OVC,,0.05,WeatherDisplay:10.37,2013-02-05 20:36:00,
2013-02-05 12:41:00,46.3,43.2,29.92,SSE,167,15.0,15.0,89,0.00,OVC,,0.05,WeatherDisplay:10.37,2013-02-05 20:41:00,
2013-02-05 12:46:00,46.6,42.9,29.92,SSE,151,15.0,15.0,87,0.00,OVC,,0.05,WeatherDisplay:10.37,2013-02-05 20:46:00,
2013-02-05 12:51:00,46.7,43.0,29.92,South,178,11.5,11.5,87,0.00,OVC,,0.05,WeatherDisplay:10.37,2013-02-05 20:51:00,
2013-02-05 12:56:00,46.7,43.0,29.92,SSE,155,15.0,15.0,87,0.00,OVC,,0.05,WeatherDisplay:10.37,2013-02-05 20:56:00,
2013-02-05 13:02:00,46.9,43.5,29.92,SSE,161,13.0,13.0,88,0.00,OVC,,0.05,WeatherDisplay:10.37,2013-02-05 21:02:00,
2013-02-05 13:07:00,47.1,43.7,29.91,SSE,168,17.3,17.3,88,0.00,OVC,,0.05,WeatherDisplay:10.37,2013-02-05 21:07:00,
2013-02-05 13:12:00,46.9,43.2,29.91,SSE,155,11.5,11.5,87,0.00,OVC,,0.05,WeatherDisplay:10.37,2013-02-05 21:12:00,
2013-02-05 13:17:00,46.9,43.2,29.91,SE,145,11.5,11.5,87,0.00,OVC,,0.05,WeatherDisplay:10.37,2013-02-05 21:17:00,
2013-02-05 13:22:00,46.8,43.1,29.91,South,172,11.5,11.5,87,0.00,OVC,,0.05,WeatherDisplay:10.37,2013-02-05 21:22:00,
2013-02-05 13:27:00,46.9,43.5,29.91,SSE,158,11.5,11.5,88,0.00,OVC,,0.05,WeatherDisplay:10.37,2013-02-05 21:27:00,
2013-02-05 13:32:00,47.2,43.8,29.91,South,180,11.5,11.5,88,0.00,OVC,,0.05,WeatherDisplay:10.37,2013-02-05 21:32:00,
2013-02-05 13:37:00,47.6,43.6,29.91,SSE,161,12.7,12.7,86,0.00,OVC,,0.05,WeatherDisplay:10.37,2013-02-05 21:37:00,
2013-02-05 13:42:00,47.7,43.7,29.91,SSE,160,11.5,11.5,86,0.00,OVC,,0.05,WeatherDisplay:10.37,2013-02-05 21:42:00,
2013-02-05 13:47:00,47.6,43.0,29.91,South,186,17.3,17.3,84,0.00,OVC,,0.05,WeatherDisplay:10.37,2013-02-05 21:47:00,
2013-02-05 13:52:00,47.4,43.1,29.90,SSW,193,9.2,9.2,85,0.00,OVC,,0.05,WeatherDisplay:10.37,2013-02-05 21:52:00,
2013-02-05 13:57:00,47.4,43.4,29.90,SSE,159,11.5,11.5,86,0.00,OVC,,0.05,WeatherDisplay:10.37,2013-02-05 21:57:00,
2013-02-05 14:02:00,47.4,43.1,29.90,SSE,154,12.7,12.7,85,0.00,OVC,,0.05,WeatherDisplay:10.37,2013-02-05 22:02:00,
2013-02-05 14:07:00,47.6,43.0,29.90,SSE,166,11.5,11.5,84,0.00,OVC,,0.05,WeatherDisplay:10.37,2013-02-05 22:07:00,
2013-02-05 14:12:00,47.9,43.0,29.90,South,184,9.0,9.0,83,0.00,OVC,,0.05,WeatherDisplay:10.37,2013-02-05 22:12:00,
2013-02-05 14:17:00,48.1,42.5,29.90,SSE,161,11.5,11.5,81,0.00,OVC,,0.05,WeatherDisplay:10.37,2013-02-05 22:17:00,
2013-02-05 14:22:00,48.0,42.1,29.90,SW,227,17.3,17.3,80,0.00,OVC,,0.05,WeatherDisplay:10.37,2013-02-05 22:22:00,
2013-02-05 14:27:00,47.9,42.7,29.90,South,184,16.1,16.1,82,0.00,OVC,,0.05,WeatherDisplay:10.37,2013-02-05 22:27:00,
2013-02-05 14:32:00,48.0,42.8,29.90,SSE,159,11.5,11.5,82,0.00,OVC,,0.05,WeatherDisplay:10.37,2013-02-05 22:32:00,
2013-02-05 14:37:00,48.1,42.9,29.90,SSE,150,15.0,15.0,82,0.00,OVC,,0.05,WeatherDisplay:10.37,2013-02-05 22:37:00,
2013-02-05 14:42:00,48.0,42.4,29.90,SE,140,11.5,11.5,81,0.00,OVC,,0.05,WeatherDisplay:10.37,2013-02-05 22:42:00,
2013-02-05 14:47:00,47.7,42.2,29.90,SSE,168,16.1,16.1,81,0.00,OVC,,0.05,WeatherDisplay:10.37,2013-02-05 22:47:00,
2013-02-05 14:52:00,47.6,42.4,29.90,South,170,11.5,11.5,82,0.00,OVC,,0.05,WeatherDisplay:10.37,2013-02-05 22:52:00,
2013-02-05 14:57:00,47.5,42.3,29.91,South,180,12.0,12.0,82,0.00,OVC,,0.05,WeatherDisplay:10.37,2013-02-05 22:57:00,
2013-02-05 15:02:00,47.2,42.3,29.91,SE,142,11.5,11.5,83,0.00,OVC,,0.05,WeatherDisplay:10.37,2013-02-05 23:02:00,
2013-02-05 15:07:00,47.0,42.1,29.91,SSE,162,10.4,10.4,83,0.00,OVC,,0.05,WeatherDisplay:10.37,2013-02-05 23:07:00,
2013-02-05 15:12:00,46.8,41.9,29.91,SE,134,17.3,17.3,83,0.00,OVC,,0.05,WeatherDisplay:10.37,2013-02-05 23:12:00,
2013-02-05 15:17:00,46.8,41.9,29.90,SSE,163,14.0,14.0,83,0.00,OVC,,0.05,WeatherDisplay:10.37,2013-02-05 23:17:00,
2013-02-05 15:22:00,46.9,41.7,29.91,SSE,155,17.3,17.3,82,0.00,OVC,,0.05,WeatherDisplay:10.37,2013-02-05 23:22:00,
2013-02-05 15:27:00,47.1,41.9,29.91,SSW,201,18.4,18.4,82,0.00,OVC,,0.05,WeatherDisplay:10.37,2013-02-05 23:27:00,
2013-02-05 15:32:00,47.2,41.7,29.91,SSE,168,18.4,18.4,81,0.00,OVC,,0.05,WeatherDisplay:10.37,2013-02-05 23:32:00,
2013-02-05 15:37:00,47.2,41.3,29.91,South,178,11.5,11.5,80,0.00,OVC,,0.05,WeatherDisplay:10.37,2013-02-05 23:37:00,
2013-02-05 15:42:00,47.4,41.9,29.90,SSW,195,13.8,13.8,81,0.00,OVC,,0.05,WeatherDisplay:10.37,2013-02-05 23:42:00,
2013-02-05 15:47:00,47.5,42.0,29.91,SE,144,15.0,15.0,81,0.00,OVC,,0.05,WeatherDisplay:10.37,2013-02-05 23:47:00,
2013-02-05 15:52:00,47.3,41.8,29.91,SE,130,12.7,12.7,81,0.00,OVC,,0.05,WeatherDisplay:10.37,2013-02-05 23:52:00,
2013-02-05 15:57:00,46.9,41.4,29.91,SSE,168,17.3,17.3,81,0.00,OVC,,0.05,WeatherDisplay:10.37,2013-02-05 23:57:00,
2013-02-05 16:02:00,46.5,41.0,29.91,SSE,151,14.0,14.0,81,0.00,OVC,,0.05,WeatherDisplay:10.37,2013-02-06 00:02:00,
2013-02-05 16:07:00,46.3,41.4,29.91,South,181,20.0,20.0,83,0.00,OVC,,0.05,WeatherDisplay:10.37,2013-02-06 00:07:00,
2013-02-05 16:12:00,46.1,41.5,29.91,SSE,148,17.3,17.3,84,0.00,OVC,,0.05,WeatherDisplay:10.37,2013-02-06 00:12:00,
2013-02-05 16:17:00,45.9,41.6,29.91,SE,134,18.4,18.4,85,0.00,OVC,,0.05,WeatherDisplay:10.37,2013-02-06 00:17:00,
2013-02-05 16:22:00,45.8,41.9,29.92,South,189,15.0,15.0,86,0.00,OVC,,0.05,WeatherDisplay:10.37,2013-02-06 00:22:00,
2013-02-05 16:27:00,45.8,41.9,29.92,South,181,17.3,17.3,86,0.00,OVC,,0.05,WeatherDisplay:10.37,2013-02-06 00:27:00,
2013-02-05 16:32:00,45.7,42.1,29.92,South,190,15.0,15.0,87,0.00,OVC,,0.05,WeatherDisplay:10.37,2013-02-06 00:32:00,
2013-02-05 16:37:00,45.6,42.0,29.92,South,180,10.4,10.4,87,0.00,OVC,,0.05,WeatherDisplay:10.37,2013-02-06 00:37:00,
2013-02-05 16:42:00,45.5,42.2,29.92,SSE,163,16.1,16.1,88,0.00,OVC,,0.05,WeatherDisplay:10.37,2013-02-06 00:42:00,
2013-02-05 16:47:00,45.4,42.3,29.92,SSW,198,12.7,12.7,89,0.00,OVC,,0.05,WeatherDisplay:10.37,2013-02-06 00:47:00,
2013-02-05 16:52:00,45.2,42.2,29.92,South,172,12.7,12.7,89,0.00,OVC,,0.05,WeatherDisplay:10.37,2013-02-06 00:52:00,
2013-02-05 16:57:00,45.1,42.1,29.93,SSE,167,19.6,19.6,89,0.00,OVC,,0.05,WeatherDisplay:10.37,2013-02-06 00:57:00,
2013-02-05 17:02:00,45.1,42.1,29.93,ESE,121,12.7,12.7,89,0.00,OVC,,0.05,WeatherDisplay:10.37,2013-02-06 01:02:00,
2013-02-05 17:07:00,45.1,41.8,29.93,SE,126,16.1,16.1,88,0.00,OVC,,0.05,WeatherDisplay:10.37,2013-02-06 01:07:00,
2013-02-05 17:12:00,45.0,42.0,29.92,South,171,14.0,14.0,89,0.00,OVC,,0.05,WeatherDisplay:10.37,2013-02-06 01:12:00,
2013-02-05 17:17:00,44.9,41.6,29.93,South,176,15.0,15.0,88,0.00,OVC,,0.05,WeatherDisplay:10.37,2013-02-06 01:17:00,
2013-02-05 17:22:00,44.7,41.4,29.93,South,174,19.6,19.6,88,0.00,OVC,,0.05,WeatherDisplay:10.37,2013-02-06 01:22:00,
2013-02-05 17:27:00,44.5,41.5,29.93,SSE,161,15.0,15.0,89,0.00,OVC,,0.05,WeatherDisplay:10.37,2013-02-06 01:27:00,
2013-02-05 17:32:00,44.4,41.4,29.93,SE,129,11.5,11.5,89,0.00,OVC,,0.05,WeatherDisplay:10.37,2013-02-06 01:32:00,
2013-02-05 17:37:00,44.2,41.5,29.93,SSE,160,11.5,11.5,90,0.00,OVC,,0.05,WeatherDisplay:10.37,2013-02-06 01:37:00,
2013-02-05 17:42:00,44.1,41.4,29.93,South,188,13.0,13.0,90,0.00,OVC,,0.05,WeatherDisplay:10.37,2013-02-06 01:42:00,
2013-02-05 17:47:00,44.0,41.3,29.93,SSE,167,11.5,11.5,90,0.00,OVC,,0.05,WeatherDisplay:10.37,2013-02-06 01:47:00,
2013-02-05 17:52:00,43.9,41.2,29.93,SSE,150,10.4,10.4,90,0.00,OVC,,0.05,WeatherDisplay:10.37,2013-02-06 01:52:00,
2013-02-05 17:57:00,43.8,41.1,29.93,SSE,168,12.7,12.7,90,0.00,OVC,,0.05,WeatherDisplay:10.37,2013-02-06 01:57:00,
2013-02-05 18:02:00,43.7,41.0,29.94,SE,137,11.5,11.5,90,0.00,OVC,,0.05,WeatherDisplay:10.37,2013-02-06 02:02:00,
2013-02-05 18:07:00,43.7,41.0,29.94,SSE,162,13.8,13.8,90,0.00,OVC,,0.05,WeatherDisplay:10.37,2013-02-06 02:07:00,
2013-02-05 18:12:00,43.7,41.0,29.94,South,191,8.1,8.1,90,0.00,OVC,,0.05,WeatherDisplay:10.37,2013-02-06 02:12:00,
2013-02-05 18:17:00,43.6,40.9,29.94,SE,136,11.5,11.5,90,0.00,OVC,,0.05,WeatherDisplay:10.37,2013-02-06 02:17:00,
2013-02-05 18:22:00,43.5,40.8,29.94,SSE,152,11.5,11.5,90,0.00,OVC,,0.05,WeatherDisplay:10.37,2013-02-06 02:22:00,
2013-02-05 18:27:00,43.5,40.8,29.94,SSE,156,10.4,10.4,90,0.00,OVC,,0.05,WeatherDisplay:10.37,2013-02-06 02:27:00,
2013-02-05 18:32:00,43.5,40.8,29.94,SSE,157,11.5,11.5,90,0.00,OVC,,0.05,WeatherDisplay:10.37,2013-02-06 02:32:00,
2013-02-05 18:37:00,43.5,40.8,29.94,SE,146,11.5,11.5,90,0.00,OVC,,0.05,WeatherDisplay:10.37,2013-02-06 02:37:00,
2013-02-05 18:42:00,43.5,40.8,29.95,SSE,150,12.0,12.0,90,0.00,OVC,,0.05,WeatherDisplay:10.37,2013-02-06 02:42:00,
2013-02-05 18:47:00,43.4,40.9,29.95,SW,216,13.8,13.8,91,0.00,OVC,,0.05,WeatherDisplay:10.37,2013-02-06 02:47:00,
2013-02-05 18:52:00,43.4,40.9,29.95,South,175,11.5,11.5,91,0.00,OVC,,0.05,WeatherDisplay:10.37,2013-02-06 02:52:00,
2013-02-05 18:57:00,43.4,40.9,29.95,South,171,12.7,12.7,91,0.00,OVC,,0.05,WeatherDisplay:10.37,2013-02-06 02:57:00,
2013-02-05 19:02:00,43.4,40.9,29.96,SSE,157,11.5,11.5,91,0.00,OVC,,0.05,WeatherDisplay:10.37,2013-02-06 03:02:00,
2013-02-05 19:07:00,43.3,40.8,29.96,SSE,161,12.7,12.7,91,0.00,OVC,,0.05,WeatherDisplay:10.37,2013-02-06 03:07:00,
2013-02-05 19:12:00,43.4,40.9,29.96,SE,143,11.5,11.5,91,0.00,OVC,,0.05,WeatherDisplay:10.37,2013-02-06 03:12:00,
2013-02-05 19:17:00,43.3,40.8,29.96,SSE,157,9.2,9.2,91,0.00,OVC,,0.05,WeatherDisplay:10.37,2013-02-06 03:17:00,
2013-02-05 19:22:00,43.2,40.8,29.96,SSE,167,10.4,10.4,91,0.00,OVC,,0.05,WeatherDisplay:10.37,2013-02-06 03:22:00,
2013-02-05 19:27:00,43.1,40.7,29.97,SE,134,9.0,9.0,91,0.00,OVC,,0.05,WeatherDisplay:10.37,2013-02-06 03:27:00,
2013-02-05 19:32:00,43.0,40.6,29.97,SSE,150,6.9,6.9,91,0.00,OVC,,0.05,WeatherDisplay:10.37,2013-02-06 03:32:00,
2013-02-05 19:38:00,43.0,40.6,29.97,South,169,11.5,11.5,91,0.00,OVC,,0.05,WeatherDisplay:10.37,2013-02-06 03:38:00,
2013-02-05 19:43:00,42.9,40.5,29.97,SSW,197,8.1,8.1,91,0.00,OVC,,0.05,WeatherDisplay:10.37,2013-02-06 03:43:00,
2013-02-05 19:48:00,42.8,40.4,29.97,South,172,9.2,9.2,91,0.00,OVC,,0.05,WeatherDisplay:10.37,2013-02-06 03:48:00,
2013-02-05 19:53:00,42.8,40.4,29.97,South,176,12.7,12.7,91,0.00,OVC,,0.05,WeatherDisplay:10.37,2013-02-06 03:53:00,
2013-02-05 19:58:00,42.8,40.4,29.97,SE,126,11.5,11.5,91,0.00,OVC,,0.05,WeatherDisplay:10.37,2013-02-06 03:58:00,
2013-02-05 20:03:00,42.7,40.5,29.97,SSE,164,6.9,6.9,92,0.00,OVC,,0.05,WeatherDisplay:10.37,2013-02-06 04:03:00,
2013-02-05 20:08:00,42.4,40.2,29.97,South,169,10.4,10.4,92,0.00,OVC,,0.05,WeatherDisplay:10.37,2013-02-06 04:08:00,
2013-02-05 20:13:00,42.2,40.0,29.97,SSE,158,11.5,11.5,92,0.00,OVC,,0.05,WeatherDisplay:10.37,2013-02-06 04:13:00,
2013-02-05 20:18:00,42.2,40.0,29.98,South,175,9.2,9.2,92,0.00,OVC,,0.05,WeatherDisplay:10.37,2013-02-06 04:18:00,
2013-02-05 20:23:00,42.1,39.9,29.98,SE,146,6.9,6.9,92,0.00,OVC,,0.05,WeatherDisplay:10.37,2013-02-06 04:23:00,
2013-02-05 20:28:00,42.0,39.8,29.98,SSE,163,6.9,6.9,92,0.00,OVC,,0.05,WeatherDisplay:10.37,2013-02-06 04:28:00,
2013-02-05 20:33:00,42.0,40.1,29.98,SSE,159,6.9,6.9,93,0.00,OVC,,0.05,WeatherDisplay:10.37,2013-02-06 04:33:00,
2013-02-05 20:38:00,41.9,40.0,29.98,SSE,161,11.5,11.5,93,0.00,OVC,,0.05,WeatherDisplay:10.37,2013-02-06 04:38:00,
2013-02-05 20:43:00,41.8,39.9,29.98,South,175,6.9,6.9,93,0.00,OVC,,0.05,WeatherDisplay:10.37,2013-02-06 04:43:00,
2013-02-05 20:48:00,41.8,39.9,29.99,SSE,162,5.8,5.8,93,0.00,OVC,,0.05,WeatherDisplay:10.37,2013-02-06 04:48:00,
2013-02-05 20:53:00,41.8,39.9,29.99,South,175,15.0,15.0,93,0.00,OVC,,0.05,WeatherDisplay:10.37,2013-02-06 04:53:00,
2013-02-05 20:58:00,41.8,39.9,29.99,South,182,11.0,11.0,93,0.00,OVC,,0.05,WeatherDisplay:10.37,2013-02-06 04:58:00,
2013-02-05 21:00:00,41.9,39.7,29.99,SSE,156,11.5,11.5,92,0.00,OVC,,0.05,WeatherDisplay:10.37,2013-02-06 05:00:00,
2013-02-05 21:05:00,41.9,39.7,29.99,SSE,159,11.5,11.5,92,0.01,RA,,0.06,WeatherDisplay:10.37,2013-02-06 05:05:00,
2013-02-05 21:10:00,41.8,39.6,29.99,SSW,193,10.4,10.4,92,0.01,RA,,0.06,WeatherDisplay:10.37,2013-02-06 05:10:00,
2013-02-05 21:15:00,41.8,39.9,30.00,South,170,10.4,10.4,93,0.01,OVC,,0.06,WeatherDisplay:10.37,2013-02-06 05:15:00,
2013-02-05 21:20:00,41.7,39.8,30.00,South,173,5.8,5.8,93,0.01,OVC,,0.06,WeatherDisplay:10.37,2013-02-06 05:20:00,
2013-02-05 21:25:00,41.6,39.7,30.00,SE,144,5.8,5.8,93,0.02,RA,,0.07,WeatherDisplay:10.37,2013-02-06 05:25:00,
2013-02-05 21:30:00,41.6,39.7,30.00,SSE,159,11.5,11.5,93,0.02,RA,,0.07,WeatherDisplay:10.37,2013-02-06 05:30:00,
2013-02-05 21:35:00,41.6,39.7,30.00,SE,141,8.1,8.1,93,0.02,OVC,,0.07,WeatherDisplay:10.37,2013-02-06 05:35:00,
2013-02-05 21:40:00,41.6,40.0,30.00,South,177,6.9,6.9,94,0.02,OVC,,0.07,WeatherDisplay:10.37,2013-02-06 05:40:00,
2013-02-05 21:45:00,41.6,40.0,30.00,South,179,11.5,11.5,94,0.02,OVC,,0.07,WeatherDisplay:10.37,2013-02-06 05:45:00,
2013-02-05 21:50:00,41.6,40.0,30.00,SSE,152,5.8,5.8,94,0.02,OVC,,0.07,WeatherDisplay:10.37,2013-02-06 05:50:00,
2013-02-05 21:55:00,41.5,39.9,30.00,SSE,152,10.4,10.4,94,0.02,OVC,,0.07,WeatherDisplay:10.37,2013-02-06 05:55:00,
2013-02-05 22:00:00,41.5,39.9,30.00,SSW,195,11.0,11.0,94,0.02,OVC,,0.07,WeatherDisplay:10.37,2013-02-06 06:00:00,
2013-02-05 22:05:00,41.5,39.9,30.00,SSE,149,11.5,11.5,94,0.01,OVC,,0.07,WeatherDisplay:10.37,2013-02-06 06:05:00,
2013-02-05 22:10:00,41.5,39.9,30.00,SSE,151,10.4,10.4,94,0.01,OVC,,0.07,WeatherDisplay:10.37,2013-02-06 06:10:00,
2013-02-05 22:15:00,41.4,39.8,30.01,SE,145,15.0,15.0,94,0.01,OVC,,0.07,WeatherDisplay:10.37,2013-02-06 06:15:00,
2013-02-05 22:20:00,41.4,39.8,30.01,SSE,153,12.7,12.7,94,0.01,OVC,,0.07,WeatherDisplay:10.37,2013-02-06 06:20:00,
2013-02-05 22:25:00,41.4,39.8,30.01,South,189,15.0,15.0,94,0.00,OVC,,0.07,WeatherDisplay:10.37,2013-02-06 06:25:00,
2013-02-05 22:30:00,41.4,39.8,30.00,SSE,149,9.2,9.2,94,0.00,OVC,,0.07,WeatherDisplay:10.37,2013-02-06 06:30:00,
2013-02-05 22:35:00,41.4,39.8,30.00,SE,144,10.4,10.4,94,0.00,OVC,,0.07,WeatherDisplay:10.37,2013-02-06 06:35:00,
2013-02-05 22:40:00,41.4,39.8,30.00,South,191,10.4,10.4,94,0.00,OVC,,0.07,WeatherDisplay:10.37,2013-02-06 06:40:00,
2013-02-05 22:45:00,41.3,39.7,30.00,SSE,158,10.4,10.4,94,0.00,OVC,,0.07,WeatherDisplay:10.37,2013-02-06 06:45:00,
2013-02-05 22:50:00,41.3,39.7,30.01,South,171,10.4,10.4,94,0.00,OVC,,0.07,WeatherDisplay:10.37,2013-02-06 06:50:00,
2013-02-05 22:55:00,41.3,39.7,30.01,SSE,154,6.9,6.9,94,0.00,OVC,,0.07,WeatherDisplay:10.37,2013-02-06 06:55:00,
2013-02-05 23:00:00,41.3,39.7,30.01,SSE,160,6.9,6.9,94,0.00,OVC,,0.07,WeatherDisplay:10.37,2013-02-06 07:00:00,
2013-02-05 23:05:00,41.3,39.7,30.01,SSE,166,10.0,10.0,94,0.00,OVC,,0.07,WeatherDisplay:10.37,2013-02-06 07:05:00,
2013-02-05 23:10:00,41.3,39.7,30.01,SSE,165,16.1,16.1,94,0.00,OVC,,0.07,WeatherDisplay:10.37,2013-02-06 07:10:00,
2013-02-05 23:15:00,41.3,39.7,30.02,SSW,192,11.5,11.5,94,0.00,OVC,,0.07,WeatherDisplay:10.37,2013-02-06 07:15:00,
2013-02-05 23:20:00,41.3,39.7,30.02,SSW,192,12.0,12.0,94,0.00,OVC,,0.07,WeatherDisplay:10.37,2013-02-06 07:20:00,
2013-02-05 23:25:00,41.2,39.6,30.02,SE,142,12.7,12.7,94,0.00,OVC,,0.07,WeatherDisplay:10.37,2013-02-06 07:25:00,
2013-02-05 23:30:00,41.2,39.9,30.02,South,175,9.2,9.2,95,0.00,OVC,,0.07,WeatherDisplay:10.37,2013-02-06 07:30:00,
2013-02-05 23:35:00,41.2,39.6,30.02,SE,134,13.0,13.0,94,0.00,OVC,,0.07,WeatherDisplay:10.37,2013-02-06 07:35:00,
2013-02-05 23:40:00,41.1,39.5,30.02,SSE,154,11.5,11.5,94,0.00,OVC,,0.07,WeatherDisplay:10.37,2013-02-06 07:40:00,
2013-02-05 23:45:00,41.1,39.5,30.02,SSE,153,9.2,9.2,94,0.00,OVC,,0.07,WeatherDisplay:10.37,2013-02-06 07:45:00,
2013-02-05 23:50:00,41.1,39.5,30.02,ESE,122,13.8,13.8,94,0.00,OVC,,0.07,WeatherDisplay:10.37,2013-02-06 07:50:00,
2013-02-05 23:55:00,41.1,39.5,30.02,SSE,147,11.5,11.5,94,0.00,OVC,,0.07,WeatherDisplay:10.37,2013-02-06 07:55:00,